"2016-03-22 00:00:00",1478811,9.11,306.1,2.67,0.464,18.94,107.1383,17.55,18.52,9.66,0,110.7,13.13,18.36,268.1
"2016-03-22 00:00:30",1478812,9.36,305.4,4.471,0.632,18.93,107.1434,17.56,18.53,9.8,0,110.7,13.13,18.38,267.4
"2016-03-22 00:01:00",1478813,9.55,305.9,2.624,0.543,18.93,107.1558,17.59,18.55,9.93,0,110.7,13.13,18.41,267.9
"2016-03-22 00:01:30",1478814,9.39,306.6,4.07,0.85,18.94,107.169,17.63,18.58,10.03,0,110.8,13.13,18.44,268.6
"2016-03-22 00:02:00",1478815,10.1,307.1,1.481,0.319,18.93,107.1715,17.63,18.59,9.75,0,110.8,13.13,18.45,269.1
"2016-03-22 00:02:30",1478816,10.46,308.2,0.776,0.175,18.95,107.1709,17.63,18.62,9.58,0,110.8,13.13,18.45,270.2
"2016-03-22 00:03:00",1478817,10.35,312,2.557,0.313,19.01,107.1731,17.64,18.63,9.5,0,110.8,13.13,18.45,274.0
"2016-03-22 00:03:30",1478818,12.19,304.4,3.043,0.851,19.01,107.1936,17.69,18.65,9.62,0,110.8,13.13,18.51,266.4
"2016-03-22 00:04:00",1478819,11.5,304.5,3.389,1.186,19.05,107.2011,17.71,18.66,9.59,0,110.8,13.13,18.52,266.5
"2016-03-22 00:04:30",1478820,10.1,308.9,2.178,0.433,19.06,107.1993,17.71,18.67,9.56,0,110.8,13.13,18.52,270.9
"2016-03-22 00:05:00",1478821,10.22,301.6,3.556,0.385,19.05,107.1969,17.7,18.68,9.51,0,110.8,13.13,18.51,263.6
"2016-03-22 00:05:30",1478822,11.7,302,2.275,0.348,19.05,107.1965,17.7,18.71,9.66,0,110.8,13.13,18.51,264.0
"2016-03-22 00:06:00",1478823,11.59,303.7,2.748,0.32,19.17,107.1968,17.7,18.71,9.65,0,110.8,13.13,18.51,265.7
"2016-03-22 00:06:30",1478824,10.99,307.1,1.354,0.774,19.16,107.2109,17.74,18.73,9.66,0,110.8,13.13,18.55,269.1
"2016-03-22 00:07:00",1478825,9.65,305.7,3.566,0.585,19.11,107.225,17.77,18.73,9.64,0,110.8,13.13,18.59,267.7
"2016-03-22 00:07:30",1478826,8.46,312.8,2.494,0.333,19.13,107.2297,17.78,18.74,9.78,0,110.8,13.13,18.60,274.8
"2016-03-22 00:08:00",1478827,9.01,315.9,1.868,0.628,19.1,107.2297,17.78,18.75,10.01,0,110.8,13.13,18.60,277.9
"2016-03-22 00:08:30",1478828,10.01,314.8,3.404,0.46,19.11,107.2297,17.78,18.77,10.24,0,110.8,13.12,18.60,276.8
"2016-03-22 00:09:00",1478829,10.07,311.5,2.502,0.425,19.07,107.2297,17.78,18.77,10.01,0,110.8,13.13,18.60,273.5
"2016-03-22 00:09:30",1478830,10.19,309,3.236,0.546,19.08,107.2362,17.8,18.79,9.91,0,110.8,13.12,18.61,271.0
"2016-03-22 00:10:00",1478831,9.79,309.3,1.694,0.301,19.06,107.2494,17.83,18.79,9.68,0,110.8,13.12,18.65,271.3
"2016-03-22 00:10:30",1478832,9.65,309.9,2.272,0.789,19.01,107.2548,17.85,18.81,9.66,0,110.8,13.12,18.66,271.9
"2016-03-22 00:11:00",1478833,9.58,310.1,2.395,0.382,19.02,107.2573,17.85,18.81,9.67,0,110.8,13.12,18.67,272.1
"2016-03-22 00:11:30",1478834,9.29,311.1,2.683,0.353,19.02,107.2601,17.86,18.82,9.9,0,110.8,13.12,18.68,273.1
"2016-03-22 00:12:00",1478835,9.12,308.5,2.919,0.456,19.02,107.2627,17.87,18.84,9.85,0,110.8,13.12,18.68,270.5
"2016-03-22 00:12:30",1478836,8.05,310.7,2.532,0.33,19.03,107.2635,17.87,18.83,9.65,0,110.8,13.12,18.69,272.7
"2016-03-22 00:13:00",1478837,7.672,305.5,2.152,0.382,18.99,107.2635,17.87,18.83,9.89,0,110.8,13.11,18.69,267.5
"2016-03-22 00:13:30",1478838,6.709,305,4.063,0.434,18.94,107.2635,17.87,18.84,9.98,0,110.8,13.11,18.69,267.0
"2016-03-22 00:14:00",1478839,8.34,309.1,2.485,0.548,18.95,107.2601,17.86,18.83,10.07,0,110.8,13.11,18.68,271.1
"2016-03-22 00:14:30",1478840,7.707,303.5,4.935,0.64,18.95,107.2562,17.85,18.82,10.2,0,110.8,13.11,18.67,265.5
"2016-03-22 00:15:00",1478841,6.658,297.4,5.954,0.407,18.91,107.2461,17.83,18.8,10.17,0,110.8,13.11,18.64,259.4
"2016-03-22 00:15:30",1478842,7.247,299.7,5.605,0.721,18.97,107.2489,17.83,18.8,10.11,0,110.8,13.11,18.65,261.7
"2016-03-22 00:16:00",1478843,6.067,308,4.308,0.559,18.96,107.2441,17.82,18.8,10.31,0,110.8,13.11,18.64,270.0
"2016-03-22 00:16:30",1478844,6.752,308.7,1.705,0.338,18.97,107.2517,17.84,18.79,10.56,0,110.8,13.11,18.65,270.7
"2016-03-22 00:17:00",1478845,8.32,313.3,2.576,0.908,19.02,107.2553,17.85,18.8,10.3,0,110.8,13.11,18.66,275.3
"2016-03-22 00:17:30",1478846,9.28,315.2,2.449,0.613,19.07,107.2593,17.86,18.82,10.06,0,110.8,13.12,18.67,277.2
"2016-03-22 00:18:00",1478847,8.37,307,3,0.49,19,107.2632,17.87,18.82,10.21,0,110.8,13.12,18.68,269.0
"2016-03-22 00:18:30",1478848,8.89,310.2,1.543,0.232,19.05,107.2635,17.87,18.82,10.08,0,110.8,13.12,18.69,272.2
"2016-03-22 00:19:00",1478849,8.08,311.2,3.548,0.732,19.07,107.2635,17.87,18.83,10.25,0,110.8,13.12,18.69,273.2
"2016-03-22 00:19:30",1478850,7.263,306.8,1.939,0.251,19.04,107.2635,17.87,18.84,10.29,0,110.8,13.12,18.69,268.8
"2016-03-22 00:20:00",1478851,7.375,305.2,4.419,0.402,19,107.2635,17.87,18.83,10.27,0,110.8,13.12,18.69,267.2
"2016-03-22 00:20:30",1478852,8.48,309.1,1.33,0.624,19.03,107.2629,17.87,18.84,10.35,0,110.8,13.12,18.68,271.1
"2016-03-22 00:21:00",1478853,8.93,304.5,5.595,0.373,19.01,107.2627,17.87,18.81,10.23,0,110.8,13.12,18.68,266.5
"2016-03-22 00:21:30",1478854,10.51,312.1,2.846,0.421,19.04,107.2573,17.85,18.84,10.17,0,110.8,13.12,18.67,274.1
"2016-03-22 00:22:00",1478855,9.71,310.6,3.866,0.364,18.99,107.2531,17.84,18.83,10.14,0,110.8,13.12,18.66,272.6
"2016-03-22 00:22:30",1478856,8.06,303.5,6.479,1.053,19,107.2485,17.83,18.82,10.32,0,110.8,13.12,18.65,265.5
"2016-03-22 00:23:00",1478857,8.18,304.6,5.85,0.976,19.04,107.2422,17.82,18.83,10.44,0,110.8,13.12,18.63,266.6
"2016-03-22 00:23:30",1478858,10.71,304.7,4.136,0.712,19.07,107.2367,17.8,18.8,10.26,0,110.8,13.12,18.62,266.7
"2016-03-22 00:24:00",1478859,10.94,301.4,3.653,0.402,19.13,107.2288,17.78,18.81,9.96,0,110.9,13.12,18.60,263.4
"2016-03-22 00:24:30",1478860,10.73,307,2.925,0.541,19.19,107.2288,17.78,18.8,10.05,0,110.9,13.12,18.60,269.0
"2016-03-22 00:25:00",1478861,10.18,309.5,2.515,0.512,19.19,107.227,17.78,18.79,10.02,0,110.9,13.12,18.59,271.5
"2016-03-22 00:25:30",1478862,10.62,309.8,1.627,0.465,19.22,107.2222,17.76,18.78,10.12,0,110.9,13.12,18.58,271.8
"2016-03-22 00:26:00",1478863,10.83,308,1.56,0.438,19.24,107.2188,17.76,18.76,9.92,0,110.9,13.12,18.57,270.0
"2016-03-22 00:26:30",1478864,9.71,306.8,1.471,0.299,19.23,107.1952,17.7,18.74,9.88,0,110.9,13.12,18.51,268.8
"2016-03-22 00:27:00",1478865,9.21,305.5,2.065,0.405,19.21,107.1908,17.68,18.73,9.85,0,110.9,13.12,18.50,267.5
"2016-03-22 00:27:30",1478866,9.88,306.9,0.96,0.473,19.2,107.192,17.69,18.72,9.91,0,110.9,13.12,18.50,268.9
"2016-03-22 00:28:00",1478867,9.68,305.1,2.51,0.445,19.23,107.1938,17.69,18.71,10.03,0,110.9,13.12,18.51,267.1
"2016-03-22 00:28:30",1478868,9.68,305.6,2.356,0.303,19.31,107.1899,17.68,18.68,9.99,0,110.9,13.12,18.50,267.6
"2016-03-22 00:29:00",1478869,8.66,306.4,2.096,0.47,19.29,107.1679,17.63,18.68,10.03,0,110.9,13.11,18.44,268.4
"2016-03-22 00:29:30",1478870,10.66,305,1.18,0.623,19.35,107.1588,17.6,18.67,10.1,0,110.9,13.11,18.42,267.0
"2016-03-22 00:30:00",1478871,10.43,305.8,2.647,0.253,19.38,107.1607,17.61,18.65,10.01,0,110.9,13.11,18.42,267.8
"2016-03-22 00:30:30",1478872,10.9,301.1,1.862,0.22,19.31,107.1561,17.6,18.63,10.07,0,110.9,13.11,18.41,263.1
"2016-03-22 00:31:00",1478873,11.01,301,2.136,0.342,19.23,107.1414,17.56,18.6,10.09,0,110.9,13.11,18.37,263.0
"2016-03-22 00:31:30",1478874,11.02,303,2.054,0.355,19.19,107.128,17.52,18.58,10.19,0,110.8,13.11,18.34,265.0
"2016-03-22 00:32:00",1478875,11.38,306.8,1.498,0.311,19.14,107.1269,17.52,18.57,10.26,0,110.8,13.11,18.33,268.8
"2016-03-22 00:32:30",1478876,11.78,302.1,2.2,0.375,19.15,107.1199,17.5,18.55,10.18,0,110.8,13.11,18.32,264.1
"2016-03-22 00:33:00",1478877,11.55,302.9,1.503,0.38,19.1,107.1058,17.47,18.54,10.28,0,110.8,13.11,18.28,264.9
"2016-03-22 00:33:30",1478878,11,302.2,2.765,0.637,19.06,107.0943,17.44,18.52,10.48,0,110.8,13.11,18.25,264.2
"2016-03-22 00:34:00",1478879,11.04,302,1.851,0.393,19.19,107.0937,17.44,18.49,10.36,0,110.8,13.11,18.25,264.0
"2016-03-22 00:34:30",1478880,11.11,305.8,1.7,0.258,19.2,107.0928,17.43,18.47,10.17,0,110.8,13.11,18.25,267.8
"2016-03-22 00:35:00",1478881,11.17,306.4,1.305,0.374,19.15,107.0859,17.42,18.44,10.19,0,110.8,13.12,18.23,268.4
"2016-03-22 00:35:30",1478882,10.06,303.3,1.509,0.229,19.13,107.0763,17.39,18.43,10.2,0,110.8,13.12,18.20,265.3
"2016-03-22 00:36:00",1478883,10.24,305.4,1.808,0.199,19.18,107.0712,17.38,18.42,10.22,0,110.8,13.12,18.19,267.4
"2016-03-22 00:36:30",1478884,10.52,303.5,1.83,0.194,19.23,107.0608,17.35,18.4,10.23,0,110.8,13.12,18.16,265.5
"2016-03-22 00:37:00",1478885,11.04,306.2,3.323,0.56,19.28,107.0608,17.35,18.38,10.26,0,110.8,13.12,18.16,268.2
"2016-03-22 00:37:30",1478886,11.17,309,2.551,0.238,19.36,107.0608,17.35,18.37,10.3,0,110.8,13.12,18.16,271.0
"2016-03-22 00:38:00",1478887,10.88,305.2,1.526,0.351,19.38,107.0602,17.35,18.36,10.35,0,110.8,13.12,18.16,267.2
"2016-03-22 00:38:30",1478888,10.31,307.4,2.161,0.382,19.42,107.0532,17.33,18.36,10.29,0,110.8,13.12,18.14,269.4
"2016-03-22 00:39:00",1478889,10.78,305.8,3.189,0.832,19.42,107.0436,17.31,18.32,10.31,0,110.8,13.12,18.12,267.8
"2016-03-22 00:39:30",1478890,11.59,307.2,1.361,0.302,19.41,107.0296,17.27,18.32,10.3,0,110.8,13.12,18.08,269.2
"2016-03-22 00:40:00",1478891,10.76,309.3,1.479,0.644,19.43,107.027,17.26,18.32,10.34,0,110.8,13.12,18.08,271.3
"2016-03-22 00:40:30",1478892,10.61,309.4,1.834,0.197,19.34,107.027,17.26,18.31,10.37,0,110.8,13.12,18.08,271.4
"2016-03-22 00:41:00",1478893,11.71,303.2,1.098,0.505,19.35,107.027,17.26,18.28,10.38,0,110.8,13.12,18.08,265.2
"2016-03-22 00:41:30",1478894,11.12,307.4,1.775,0.457,19.22,107.025,17.26,18.28,10.57,0,110.8,13.12,18.07,269.4
"2016-03-22 00:42:00",1478895,11.17,307.4,2.405,0.512,19.36,107.0197,17.25,18.25,10.52,0,110.8,13.12,18.06,269.4
"2016-03-22 00:42:30",1478896,11.4,307.2,1.732,0.234,19.38,107.0124,17.23,18.25,10.39,0,110.8,13.12,18.04,269.2
"2016-03-22 00:43:00",1478897,11.09,303.7,1.199,0.542,19.4,106.9986,17.19,18.24,10.38,0,110.8,13.12,18.00,265.7
"2016-03-22 00:43:30",1478898,10.28,299.5,3.182,0.228,19.42,106.9935,17.18,18.22,10.37,0,110.8,13.12,17.99,261.5
"2016-03-22 00:44:00",1478899,10.44,301.7,1.615,0.237,19.43,106.9932,17.18,18.22,10.35,0,110.8,13.12,17.99,263.7
"2016-03-22 00:44:30",1478900,10.15,302.8,1.674,0.212,19.4,106.9932,17.18,18.22,10.37,0,110.8,13.12,17.99,264.8
"2016-03-22 00:45:00",1478901,10.32,300.9,1.33,0.269,19.43,106.9932,17.18,18.21,10.4,0,110.8,13.12,17.99,262.9
"2016-03-22 00:45:30",1478902,10.29,301.9,1.155,0.234,19.44,106.9932,17.18,18.18,10.38,0,110.8,13.12,17.99,263.9
"2016-03-22 00:46:00",1478903,9.99,302.1,2.531,0.178,19.4,106.9932,17.18,18.2,10.41,0,110.8,13.12,17.99,264.1
"2016-03-22 00:46:30",1478904,9.45,305.4,2.788,0.31,19.43,106.9918,17.17,18.18,10.41,0,110.8,13.12,17.99,267.4
"2016-03-22 00:47:00",1478905,9.41,303.1,2.132,0.338,19.42,106.9896,17.17,18.18,10.42,0,110.8,13.12,17.98,265.1
"2016-03-22 00:47:30",1478906,10,307.8,1.696,0.296,19.52,106.9848,17.16,18.17,10.43,0,110.8,13.12,17.97,269.8
"2016-03-22 00:48:00",1478907,9.93,309,1.099,0.226,19.5,106.9825,17.15,18.16,10.44,0,110.8,13.12,17.96,271.0
"2016-03-22 00:48:30",1478908,9.99,306.9,1.369,0.356,19.48,106.9786,17.14,18.16,10.47,0,110.8,13.12,17.95,268.9
"2016-03-22 00:49:00",1478909,9.19,306.5,1.91,0.176,19.45,106.9716,17.12,18.15,10.46,0,110.8,13.12,17.93,268.5
"2016-03-22 00:49:30",1478910,9.27,304.3,1.49,0.111,19.46,106.9603,17.09,18.16,10.46,0,110.8,13.12,17.91,266.3
"2016-03-22 00:50:00",1478911,9.59,306.8,1.314,0.226,19.44,106.9595,17.09,18.13,10.47,0,110.8,13.12,17.90,268.8
"2016-03-22 00:50:30",1478912,9.11,303.9,2.889,0.218,19.46,106.9595,17.09,18.12,10.49,0,110.8,13.12,17.90,265.9
"2016-03-22 00:51:00",1478913,9.92,304.9,2.639,0.412,19.52,106.9595,17.09,18.11,10.55,0,110.8,13.12,17.90,266.9
"2016-03-22 00:51:30",1478914,9.21,303.1,1.865,0.697,19.5,106.9595,17.09,18.12,10.56,0,110.8,13.12,17.90,265.1
"2016-03-22 00:52:00",1478915,9.15,308.6,1.624,0.263,19.5,106.958,17.09,18.11,10.55,0,110.8,13.13,17.90,270.6
"2016-03-22 00:52:30",1478916,9.38,308.7,1.034,0.315,19.44,106.9533,17.08,18.1,10.55,0,110.8,13.13,17.89,270.7
"2016-03-22 00:53:00",1478917,9.35,304.6,2.383,0.232,19.45,106.9445,17.05,18.1,10.57,0,110.8,13.13,17.86,266.6
"2016-03-22 00:53:30",1478918,9.18,304.8,1.676,0.223,19.52,106.9333,17.02,18.1,10.57,0,110.8,13.13,17.84,266.8
"2016-03-22 00:54:00",1478919,8.94,305.4,2.456,0.305,19.49,106.9277,17.01,18.08,10.6,0,110.8,13.13,17.82,267.4
"2016-03-22 00:54:30",1478920,8.73,305.8,4.726,0.299,19.44,106.9275,17.01,18.09,10.65,0,110.8,13.13,17.82,267.8
"2016-03-22 00:55:00",1478921,8.47,304.2,3.228,0.133,19.41,106.9299,17.02,18.07,10.68,0,110.8,13.13,17.83,266.2
"2016-03-22 00:55:30",1478922,8.64,302.8,2.485,0.268,19.42,106.9317,17.02,18.07,10.7,0,110.8,13.13,17.83,264.8
"2016-03-22 00:56:00",1478923,9.34,308.5,1.7,0.793,19.46,106.9323,17.02,18.05,10.65,0,110.7,13.13,17.83,270.5
"2016-03-22 00:56:30",1478924,10.21,311.3,1.056,0.236,19.52,106.9284,17.01,18.03,10.64,0,110.7,13.13,17.82,273.3
"2016-03-22 00:57:00",1478925,10.71,308.5,1.867,0.279,19.51,106.9229,17,18.03,10.65,0,110.7,13.13,17.81,270.5
"2016-03-22 00:57:30",1478926,10.07,309.2,1.577,0.33,19.59,106.9077,16.96,18.02,10.65,0,110.7,13.13,17.77,271.2
"2016-03-22 00:58:00",1478927,10.38,304.9,1.037,0.268,19.41,106.9026,16.95,18.01,10.66,0,110.7,13.13,17.76,266.9
"2016-03-22 00:58:30",1478928,10.44,308.2,1.402,0.292,19.51,106.9024,16.95,18,10.7,0,110.7,13.13,17.76,270.2
"2016-03-22 00:59:00",1478929,10.49,305.8,1.916,0.216,19.44,106.9015,16.94,17.98,10.7,0,110.7,13.13,17.75,267.8
"2016-03-22 00:59:30",1478930,10,302.4,1.216,0.335,19.48,106.9042,16.95,17.98,10.7,0,110.7,13.13,17.76,264.4
"2016-03-22 01:00:00",1478931,9.2,305.4,2.169,0.268,19.45,106.909,16.96,17.97,10.69,0,110.7,13.13,17.77,267.4
"2016-03-22 01:00:30",1478932,9.24,306.6,1.686,0.251,19.47,106.91,16.96,17.99,10.68,0,110.7,13.14,17.78,268.6
"2016-03-22 01:01:00",1478933,9.42,307.3,1.61,0.394,19.48,106.9076,16.96,17.96,10.69,0,110.7,13.14,17.77,269.3
"2016-03-22 01:01:30",1478934,9.67,308.6,0.932,0.314,19.52,106.9078,16.96,17.95,10.69,0,110.7,13.14,17.77,270.6
"2016-03-22 01:02:00",1478935,9.21,305.8,1.097,0.319,19.41,106.9094,16.96,17.96,10.7,0,110.7,13.14,17.77,267.8
"2016-03-22 01:02:30",1478936,8.96,304.8,1.571,0.335,19.41,106.9042,16.95,17.96,10.71,0,110.7,13.14,17.76,266.8
"2016-03-22 01:03:00",1478937,8.89,307.6,2.071,0.27,19.45,106.9085,16.96,17.94,10.73,0,110.7,13.14,17.77,269.6
"2016-03-22 01:03:30",1478938,8.82,310.4,3.006,0.302,19.5,106.905,16.95,17.93,10.74,0,110.7,13.13,17.76,272.4
"2016-03-22 01:04:00",1478939,8.36,305.6,1.847,0.143,19.47,106.8981,16.93,17.94,10.75,0,110.7,13.13,17.75,267.6
"2016-03-22 01:04:30",1478940,7.982,307.6,2.42,0.194,19.43,106.8942,16.92,17.93,10.75,0,110.7,13.13,17.74,269.6
"2016-03-22 01:05:00",1478941,7.837,308.2,2.547,0.209,19.42,106.8942,16.92,17.93,10.76,0,110.7,13.13,17.74,270.2
"2016-03-22 01:05:30",1478942,7.914,304.4,1.627,0.162,19.42,106.8942,16.92,17.92,10.77,0,110.7,13.13,17.74,266.4
"2016-03-22 01:06:00",1478943,8.62,310.6,1.15,0.342,19.4,106.8934,16.92,17.92,10.79,0,110.7,13.13,17.73,272.6
"2016-03-22 01:06:30",1478944,8.96,307.8,1.578,0.367,19.43,106.8877,16.91,17.91,10.78,0,110.7,13.13,17.72,269.8
"2016-03-22 01:07:00",1478945,8.84,305.3,1.634,0.458,19.38,106.8841,16.9,17.89,10.8,0,110.7,13.13,17.71,267.3
"2016-03-22 01:07:30",1478946,8.9,303,1.52,0.152,19.43,106.8756,16.88,17.88,10.85,0,110.7,13.13,17.69,265.0
"2016-03-22 01:08:00",1478947,8.42,306.5,1.847,0.181,19.45,106.8638,16.85,17.88,10.88,0,110.7,13.13,17.66,268.5
"2016-03-22 01:08:30",1478948,8.34,305.8,2.269,0.244,19.45,106.8604,16.84,17.87,10.86,0,110.7,13.13,17.65,267.8
"2016-03-22 01:09:00",1478949,8.93,307.9,1.105,0.325,19.48,106.8604,16.84,17.87,10.89,0,110.7,13.14,17.65,269.9
"2016-03-22 01:09:30",1478950,8.97,301.3,2.097,0.343,19.32,106.8604,16.84,17.86,10.89,0,110.7,13.14,17.65,263.3
"2016-03-22 01:10:00",1478951,8.35,301.7,1.298,0.162,19.41,106.8604,16.84,17.85,10.93,0,110.7,13.14,17.65,263.7
"2016-03-22 01:10:30",1478952,9.52,300.2,2.174,0.41,19.39,106.8554,16.82,17.83,10.94,0,110.7,13.15,17.64,262.2
"2016-03-22 01:11:00",1478953,9.93,302.8,1.425,0.556,19.36,106.8441,16.8,17.85,10.92,0,110.7,13.15,17.61,264.8
"2016-03-22 01:11:30",1478954,10.14,299.8,2.092,0.343,19.45,106.8292,16.76,17.82,10.95,0,110.7,13.15,17.57,261.8
"2016-03-22 01:12:00",1478955,10.19,299.4,1.542,0.278,19.39,106.8266,16.75,17.79,10.97,0,110.7,13.15,17.56,261.4
"2016-03-22 01:12:30",1478956,11.02,298.2,2.408,0.197,19.46,106.8266,16.75,17.8,10.98,0,110.7,13.15,17.56,260.2
"2016-03-22 01:13:00",1478957,10.61,296,1.773,0.283,19.4,106.8266,16.75,17.79,10.99,0,110.7,13.15,17.56,258.0
"2016-03-22 01:13:30",1478958,10.25,298,3.135,0.328,19.4,106.8266,16.75,17.77,11.02,0,110.7,13.15,17.56,260.0
"2016-03-22 01:14:00",1478959,10.44,301.2,1.154,0.214,19.33,106.8267,16.75,17.77,11.02,0,110.7,13.15,17.56,263.2
"2016-03-22 01:14:30",1478960,10.71,301.1,0.981,0.542,19.36,106.8225,16.74,17.76,11.03,0,110.7,13.15,17.55,263.1
"2016-03-22 01:15:00",1478961,11.26,300.3,1.142,0.257,19.38,106.8203,16.73,17.77,11.04,0,110.7,13.15,17.55,262.3
"2016-03-22 01:15:30",1478962,11.21,297.9,0.856,0.155,19.45,106.8181,16.73,17.75,11.04,0,110.7,13.15,17.54,259.9
"2016-03-22 01:16:00",1478963,11.74,298.1,1.057,0.238,19.37,106.8149,16.72,17.75,11.05,0,110.7,13.15,17.53,260.1
"2016-03-22 01:16:30",1478964,11.83,299.3,1.025,0.245,19.36,106.8086,16.7,17.74,11.08,0,110.6,13.15,17.51,261.3
"2016-03-22 01:17:00",1478965,11.43,300.1,1.269,0.35,19.34,106.8052,16.7,17.74,11.09,0,110.6,13.15,17.51,262.1
"2016-03-22 01:17:30",1478966,11.52,299.5,0.954,0.343,19.3,106.8021,16.69,17.72,11.11,0,110.6,13.15,17.50,261.5
"2016-03-22 01:18:00",1478967,11.17,297.2,1.196,0.265,19.33,106.8022,16.69,17.72,11.1,0,110.6,13.15,17.50,259.2
"2016-03-22 01:18:30",1478968,11.12,299.6,0.913,0.424,19.37,106.8022,16.69,17.72,11.11,0,110.6,13.15,17.50,261.6
"2016-03-22 01:19:00",1478969,10.78,301.2,0.658,0.183,19.34,106.8058,16.7,17.7,11.12,0,110.6,13.15,17.51,263.2
"2016-03-22 01:19:30",1478970,10.58,297.9,1.472,0.163,19.33,106.8046,16.69,17.72,11.15,0,110.6,13.15,17.50,259.9
"2016-03-22 01:20:00",1478971,10.43,297.3,1.256,0.246,19.43,106.8097,16.71,17.71,11.15,0,110.6,13.15,17.52,259.3
"2016-03-22 01:20:30",1478972,10.23,301.6,1.006,0.217,19.41,106.8115,16.71,17.71,11.14,0,110.6,13.15,17.52,263.6
"2016-03-22 01:21:00",1478973,10.67,295.8,4.148,0.318,19.48,106.8127,16.72,17.69,11.12,0,110.6,13.15,17.53,257.8
"2016-03-22 01:21:30",1478974,9.35,288.6,1.957,0.443,19.79,106.811,16.71,17.68,11.05,0,110.6,13.15,17.52,250.6
"2016-03-22 01:22:00",1478975,9.5,295.4,2.365,0.528,19.55,106.8158,16.72,17.69,11.08,0,110.6,13.14,17.53,257.4
"2016-03-22 01:22:30",1478976,8.81,293.8,2.402,0.242,19.53,106.8187,16.73,17.69,11.12,0,110.6,13.14,17.54,255.8
"2016-03-22 01:23:00",1478977,8.35,291.8,2.812,0.323,19.72,106.8205,16.74,17.7,11.09,0,110.6,13.15,17.55,253.8
"2016-03-22 01:23:30",1478978,8.43,287.1,3.959,0.459,19.73,106.8229,16.74,17.68,11.06,0,110.6,13.15,17.55,249.1
"2016-03-22 01:24:00",1478979,8.66,291.1,2.194,0.236,19.64,106.8268,16.75,17.69,11.06,0,110.6,13.15,17.56,253.1
"2016-03-22 01:24:30",1478980,8.8,295.1,2.282,0.272,19.44,106.8265,16.75,17.69,11.11,0,110.6,13.15,17.56,257.1
"2016-03-22 01:25:00",1478981,8.46,293.8,2.559,0.251,19.51,106.828,16.75,17.7,11.11,0,110.6,13.15,17.56,255.8
"2016-03-22 01:25:30",1478982,9.16,296.8,1.397,0.169,19.35,106.8286,16.76,17.7,11.14,0,110.6,13.15,17.57,258.8
"2016-03-22 01:26:00",1478983,9.39,297.6,1.732,0.123,19.38,106.8286,16.76,17.71,11.16,0,110.6,13.15,17.57,259.6
"2016-03-22 01:26:30",1478984,9.47,300.3,1.692,0.158,19.29,106.8289,16.76,17.71,11.18,0,110.6,13.15,17.57,262.3
"2016-03-22 01:27:00",1478985,9.68,302.5,1.53,0.189,19.31,106.8289,16.76,17.69,11.2,0,110.6,13.15,17.57,264.5
"2016-03-22 01:27:30",1478986,9.7,300.4,1.919,0.259,19.33,106.8278,16.75,17.71,11.21,0,110.6,13.15,17.56,262.4
"2016-03-22 01:28:00",1478987,9.64,302.7,1.656,0.31,19.31,106.823,16.74,17.7,11.23,0,110.6,13.16,17.55,264.7
"2016-03-22 01:28:30",1478988,8.92,302.9,1.916,0.2,19.32,106.8179,16.73,17.7,11.22,0,110.6,13.16,17.54,264.9
"2016-03-22 01:29:00",1478989,8.52,303.1,1.497,0.329,19.3,106.8112,16.71,17.7,11.24,0,110.6,13.16,17.52,265.1
"2016-03-22 01:29:30",1478990,9.18,299.2,2.104,0.202,19.41,106.7982,16.68,17.67,11.23,0,110.6,13.16,17.49,261.2
"2016-03-22 01:30:00",1478991,8.5,297.8,1.25,0.234,19.5,106.7951,16.67,17.69,11.23,0,110.6,13.16,17.48,259.8
"2016-03-22 01:30:30",1478992,8.17,297.3,1.072,0.147,19.36,106.7951,16.67,17.67,11.23,0,110.6,13.16,17.48,259.3
"2016-03-22 01:31:00",1478993,8.52,294.5,3.071,0.246,19.53,106.7951,16.67,17.66,11.22,0,110.6,13.16,17.48,256.5
"2016-03-22 01:31:30",1478994,8.12,290.2,1.948,0.273,19.57,106.7951,16.67,17.66,11.2,0,110.6,13.16,17.48,252.2
"2016-03-22 01:32:00",1478995,7.841,294.5,3.075,0.264,19.59,106.7915,16.66,17.65,11.17,0,110.6,13.16,17.47,256.5
"2016-03-22 01:32:30",1478996,8.2,294.7,0.97,0.162,19.51,106.7884,16.65,17.64,11.19,0,110.6,13.16,17.46,256.7
"2016-03-22 01:33:00",1478997,8.19,295.3,1.165,0.137,19.44,106.7872,16.65,17.63,11.22,0,110.6,13.16,17.46,257.3
"2016-03-22 01:33:30",1478998,8.01,294.5,0.808,0.201,19.45,106.7853,16.64,17.63,11.22,0,110.6,13.16,17.46,256.5
"2016-03-22 01:34:00",1478999,8.28,293.8,1.355,0.14,19.57,106.7833,16.64,17.64,11.22,0,110.6,13.16,17.45,255.8
"2016-03-22 01:34:30",1479000,8.39,295.3,0.981,0.132,19.48,106.7841,16.64,17.63,11.24,0,110.6,13.16,17.45,257.3
"2016-03-22 01:35:00",1479001,8.53,300,0.942,0.195,19.21,106.7788,16.63,17.62,11.28,0,110.6,13.16,17.44,262.0
"2016-03-22 01:35:30",1479002,8.9,300.4,0.729,0.075,19.27,106.776,16.62,17.63,11.3,0,110.6,13.16,17.43,262.4
"2016-03-22 01:36:00",1479003,8.85,299.4,2.001,0.074,19.33,106.7641,16.59,17.62,11.31,0,110.6,13.16,17.40,261.4
"2016-03-22 01:36:30",1479004,9.06,298.8,1.479,0.24,19.44,106.7613,16.58,17.62,11.26,0,110.6,13.16,17.39,260.8
"2016-03-22 01:37:00",1479005,9.33,297.5,1.325,0.435,19.43,106.7613,16.58,17.62,11.21,0,110.6,13.16,17.39,259.5
"2016-03-22 01:37:30",1479006,9.74,297.5,0.537,0.249,19.52,106.7613,16.58,17.61,11.1,0,110.6,13.16,17.39,259.5
"2016-03-22 01:38:00",1479007,9.17,299.8,0.938,0.176,19.7,106.7613,16.58,17.62,11.09,0,110.6,13.15,17.39,261.8
"2016-03-22 01:38:30",1479008,9.59,298.5,0.929,0.119,19.39,106.7619,16.58,17.6,11.09,0,110.6,13.15,17.39,260.5
"2016-03-22 01:39:00",1479009,9.45,300.6,2.012,0.354,19.47,106.7616,16.58,17.59,11.1,0,110.6,13.15,17.39,262.6
"2016-03-22 01:39:30",1479010,9.55,303.8,0.982,0.255,19.22,106.7622,16.59,17.6,11.17,0,110.6,13.15,17.40,265.8
"2016-03-22 01:40:00",1479011,10.01,303.1,0.897,0.161,19.25,106.7634,16.59,17.59,11.28,0,110.6,13.15,17.40,265.1
"2016-03-22 01:40:30",1479012,10.25,303.6,1.183,0.185,19.28,106.7643,16.59,17.61,11.25,0,110.6,13.15,17.40,265.6
"2016-03-22 01:41:00",1479013,9.74,300.2,1.126,0.203,19.49,106.7661,16.6,17.6,11.1,0,110.6,13.15,17.41,262.2
"2016-03-22 01:41:30",1479014,9.63,301.5,2.212,0.296,19.33,106.7646,16.59,17.6,11.11,0,110.6,13.15,17.40,263.5
"2016-03-22 01:42:00",1479015,10.06,301.5,1.691,0.403,19.32,106.7673,16.6,17.58,11.18,0,110.6,13.15,17.41,263.5
"2016-03-22 01:42:30",1479016,10.9,303,1.198,0.143,19.17,106.7674,16.6,17.58,11.28,0,110.6,13.15,17.41,265.0
"2016-03-22 01:43:00",1479017,10.97,301.6,1.508,0.229,19.17,106.7624,16.59,17.59,11.37,0,110.6,13.16,17.40,263.6
"2016-03-22 01:43:30",1479018,10.57,300.3,0.952,0.084,19.14,106.7565,16.57,17.57,11.34,0,110.6,13.16,17.38,262.3
"2016-03-22 01:44:00",1479019,10.58,300.3,1.02,0.134,19.19,106.745,16.54,17.57,11.28,0,110.6,13.16,17.35,262.3
"2016-03-22 01:44:30",1479020,10.62,302.3,0.645,0.225,19.31,106.7385,16.53,17.57,11.29,0,110.6,13.16,17.33,264.3
"2016-03-22 01:45:00",1479021,11.04,300.6,1.511,0.2,19.34,106.7371,16.52,17.57,11.32,0,110.6,13.16,17.33,262.6
"2016-03-22 01:45:30",1479022,10.6,300.5,2.623,0.282,19.33,106.7365,16.52,17.55,11.31,0,110.6,13.16,17.33,262.5
"2016-03-22 01:46:00",1479023,10.14,297.8,2.727,0.688,19.46,106.7398,16.53,17.54,11.24,0,110.6,13.16,17.34,259.8
"2016-03-22 01:46:30",1479024,10.79,299,3.602,0.87,19.48,106.7407,16.53,17.53,11.21,0,110.6,13.16,17.34,261.0
"2016-03-22 01:47:00",1479025,10.91,299.6,3.961,0.601,19.36,106.7413,16.53,17.54,11.21,0,110.6,13.16,17.34,261.6